Other Public Products
Issued by NWS Charleston, SC

Current Version | Previous Version | Graphics & Text | Print | Product List | Glossary On
Versions: 1 2 3 4 5 6 7 8 9 10 11 12 13 14 15 16 17 18 19 20 21 22 23 24 25 26 27 28 29 30 31 32 33 34 35 36 37 38 39 40 41 42 43 44 45 46 47 48 49 50
000
FPUS82 KCHS 180927
OPUCHS

TEST...KCHS/KSAV Gateway Observations...TEST
National Weather Service Charleston SC
400 AM EST THU JAN 18 2018

NOTE: "fair" indicates few or no clouds below 12,000 feet with no
significant weather and/or obstructions to visibility.

SCZ050-WAZ558-NCZ071-TXZ119-213-PAZ071-DCZ001-FLZ074-172-MI076-
NYZ176-178-MAZ016-IL014-TNZ027-NJZ106-GAZ044-MD014-181000-

...Gateway Observations for Charleston International...

CITY           SKY/WX    TMP DP  RH WIND       PRES   REMARKS
Chas Airport   FAIR      27  19  72 N10       30.31R WCI  17
Seattle        CLOUDY    52  40  63 SW17G25   29.75S
Charlotte      FAIR      12   7  80 NW6       30.29S WCI   3
Dallas DFW     CLOUDY    23  10  57 S5        30.54F WCI  17
Dallas Love    CLOUDY    24  10  55 CALM      30.57S
Philladelphia  FAIR      19   7  59 N13       30.14S WCI   6
Wash National  FAIR      20   6  55 NW10      30.20R WCI   9
Baltimore      FAIR      17   7  64 W6        30.16R WCI   9
Miami          FAIR      50  39  66 N10G20    30.23S
Detroit        MOCLDY    14   6  70 SW14      30.12S WCI  -1
Newark         FAIR      19   8  62 NW13      30.07F WCI   6
Laguardia      FAIR      21  10  62 NW13G21   30.07F WCI   9
J F K          FAIR      21  10  62 NW21G26   30.08F WCI   5
Boston Logan   FAIR      26  21  81 W14       29.99F WCI  14
Ft. Lauderdale MOCLDY    47  42  83 N12       30.22S
Chicago O`Hare FAIR      17   9  70 SW13G22   30.15F WCI   4
Chicago Midway FAIR      18  10  71 SW15G22   30.19F WCI   4
Houston Bush   CLOUDY    25  16  68 NE5       30.59F WCI  19
Houston Hobby  FAIR      26  18  71 NE7       30.57F WCI  18
Nashville      FAIR       9   5  84 S3        30.54S
Atlanta        FAIR      15   8  73 NW15      30.40F WCI   0

$$

GAZ044-118-TXZ119-213-NCZ071-DCZ001-MDZ014-506-PAZ021-071-NJZ106-
NYZ176-178-MAZ106-OHZ011-021-055-MIZ076-KYZ091-ILZ014-INZ047-
MNZ060-ONZ431-181000-

...Gateway Observations for Savannah International...

CITY           SKY/WX    TMP DP  RH WIND       PRES   REMARKS
Savannah Arpt  FAIR      25  12  58 NW8       30.38R WCI  16
Atlanta        FAIR      15   8  73 NW15      30.40F WCI   0
Charlotte      FAIR      12   7  80 NW6       30.29S WCI   3
Dallas DFW     CLOUDY    23  10  57 S5        30.54F WCI  17
Houston Bush   CLOUDY    25  16  68 NE5       30.59F WCI  19
Wash National  FAIR      20   6  55 NW10      30.20R WCI   9
Wash Dulles    FAIR      18   6  59 NW15G26   30.16F WCI   4
Baltimore      FAIR      17   7  64 W6        30.16R WCI   9
Philadelphia   FAIR      19   7  59 N13       30.14S WCI   6
Newark         FAIR      19   8  62 NW13      30.07F WCI   6
Laguardia      FAIR      21  10  62 NW13G21   30.07F WCI   9
J F K          FAIR      21  10  62 NW21G26   30.08F WCI   5
Boston         FAIR      26  21  81 W14       29.99F WCI  14
Pittsburg      FAIR       7   4  87 SW9       30.24F WCI  -7
Akron          FAIR       9   3  77 SW15      30.20F WCI  -8
Cleveland      FAIR      17   5  59 SW15      30.19F WCI   2
Cincinnati     FAIR      10   7  87 SW9       30.38F WCI  -3
Columbus       FAIR      10   7  85 SW12      30.33F WCI  -4
Detroit        MOCLDY    14   6  70 SW14      30.12S WCI  -1
Chicago O`Hare FAIR      17   9  70 SW13G22   30.15F WCI   4
Minneapolis    FAIR      22  17  81 SW5       29.99F WCI  16
Indianapolis   FAIR      11   6  81 SW12      30.35F WCI  -3
Toronto Canada PTCLDY    16   7  67 SW15G21   30.01F WCI   1

$$




USA.gov is the U.S. government's official web portal to all federal, state and local government web resources and services.